TimePST,TemperatureF,Dew PointF,Humidity,Sea Level PressureIn,VisibilityMPH,Wind Direction,Wind SpeedMPH,Gust SpeedMPH,PrecipitationIn,Events,Conditions,WindDirDegrees,DateUTC
12:00 AM,-7.6,-11.2,84,30.22,10.0,SW,8.1,-,N/A,,Clear,220,2013-01-01 08:00:00
12:20 AM,-7.6,-11.2,84,30.22,10.0,South,5.8,-,N/A,,Clear,190,2013-01-01 08:20:00
12:40 AM,-7.6,-13.0,77,30.22,10.0,South,3.5,-,N/A,,Clear,170,2013-01-01 08:40:00
1:00 AM,-11.2,-16.6,77,30.23,10.0,SW,4.6,-,N/A,,Clear,220,2013-01-01 09:00:00
1:20 AM,-11.2,-18.4,70,30.23,10.0,SW,4.6,-,N/A,,Clear,230,2013-01-01 09:20:00
1:40 AM,-11.2,-16.6,77,30.24,10.0,SW,6.9,-,N/A,,Clear,230,2013-01-01 09:40:00
2:00 AM,-9.4,-14.8,77,30.24,10.0,SW,4.6,-,N/A,,Clear,230,2013-01-01 10:00:00
2:20 AM,-9.4,-14.8,77,30.25,10.0,SW,4.6,-,N/A,,Clear,220,2013-01-01 10:20:00
2:40 AM,-9.4,-14.8,77,30.25,10.0,SW,6.9,-,N/A,,Clear,220,2013-01-01 10:40:00
3:00 AM,-11.2,-16.6,77,30.25,10.0,WSW,6.9,-,N/A,,Clear,240,2013-01-01 11:00:00
3:20 AM,-13.0,-18.4,77,30.25,10.0,SW,5.8,-,N/A,,Clear,230,2013-01-01 11:20:00
3:40 AM,-11.2,-16.6,77,30.25,10.0,SW,6.9,-,N/A,,Clear,220,2013-01-01 11:40:00
4:20 AM,-11.2,-16.6,77,30.24,10.0,South,3.5,-,N/A,,Clear,190,2013-01-01 12:20:00
4:40 AM,-11.2,-16.6,77,30.25,10.0,SW,5.8,-,N/A,,Clear,220,2013-01-01 12:40:00
5:00 AM,-9.4,-14.8,77,30.25,10.0,South,5.8,-,N/A,,Clear,190,2013-01-01 13:00:00
5:20 AM,-9.4,-16.6,71,30.25,10.0,SW,8.1,-,N/A,,Partly Cloudy,220,2013-01-01 13:20:00
5:40 AM,-9.4,-14.8,77,30.26,10.0,SSW,6.9,-,N/A,,Clear,210,2013-01-01 13:40:00
6:00 AM,-9.4,-14.8,77,30.26,10.0,SW,8.1,-,N/A,,Clear,220,2013-01-01 14:00:00
6:20 AM,-9.4,-14.8,77,30.26,10.0,South,5.8,-,N/A,,Clear,190,2013-01-01 14:20:00
6:40 AM,-11.2,-16.6,77,30.26,10.0,South,5.8,-,N/A,,Clear,180,2013-01-01 14:40:00
7:00 AM,-7.6,-13.0,77,30.27,10.0,South,3.5,-,N/A,,Clear,180,2013-01-01 15:00:00
7:20 AM,-9.4,-13.0,84,30.28,10.0,SW,5.8,-,N/A,,Clear,230,2013-01-01 15:20:00
7:40 AM,-11.2,-16.6,77,30.29,10.0,SW,4.6,-,N/A,,Clear,220,2013-01-01 15:40:00
8:40 AM,-7.6,-13.0,77,30.33,10.0,Calm,Calm,-,N/A,,Mostly Cloudy,0,2013-01-01 16:40:00
9:00 AM,-4.0,-11.2,71,30.33,10.0,Calm,Calm,-,N/A,,Partly Cloudy,0,2013-01-01 17:00:00
9:20 AM,-0.4,-7.6,72,30.34,10.0,Calm,Calm,-,N/A,,Clear,0,2013-01-01 17:20:00
9:40 AM,-0.4,-4.0,85,30.34,10.0,Calm,Calm,-,N/A,,Clear,0,2013-01-01 17:40:00
10:20 AM,5.0,-0.4,78,30.35,10.0,Calm,Calm,-,N/A,,Clear,0,2013-01-01 18:20:00
10:40 AM,5.0,-2.2,72,30.36,10.0,Calm,Calm,-,N/A,,Clear,0,2013-01-01 18:40:00
11:00 AM,5.0,-2.2,72,30.35,10.0,Calm,Calm,-,N/A,,Clear,0,2013-01-01 19:00:00
11:20 AM,6.8,-0.4,72,30.35,10.0,Calm,Calm,-,N/A,,Clear,0,2013-01-01 19:20:00
11:40 AM,8.6,-0.4,67,30.34,10.0,Calm,Calm,-,N/A,,Clear,0,2013-01-01 19:40:00
12:00 PM,10.4,-0.4,62,30.34,10.0,ENE,3.5,-,N/A,,Clear,70,2013-01-01 20:00:00
12:20 PM,10.4,1.4,67,30.33,10.0,ENE,4.6,-,N/A,,Clear,60,2013-01-01 20:20:00
12:40 PM,12.2,1.4,62,30.33,10.0,ENE,3.5,-,N/A,,Clear,60,2013-01-01 20:40:00
1:00 PM,14.0,3.2,62,30.32,10.0,Calm,Calm,-,N/A,,Clear,0,2013-01-01 21:00:00
1:20 PM,17.6,5.0,58,30.32,10.0,Calm,Calm,-,N/A,,Clear,0,2013-01-01 21:20:00
1:40 PM,17.6,5.0,58,30.32,10.0,Calm,Calm,-,N/A,,Clear,0,2013-01-01 21:40:00
2:00 PM,17.6,5.0,58,30.32,10.0,NE,5.8,-,N/A,,Clear,40,2013-01-01 22:00:00
2:20 PM,17.6,5.0,58,30.32,10.0,NE,4.6,-,N/A,,Clear,40,2013-01-01 22:20:00
2:40 PM,17.6,5.0,58,30.33,10.0,NNE,5.8,-,N/A,,Clear,20,2013-01-01 22:40:00
3:00 PM,19.4,5.0,54,30.33,10.0,North,4.6,-,N/A,,Clear,10,2013-01-01 23:00:00
3:20 PM,19.4,5.0,54,30.33,10.0,Calm,Calm,-,N/A,,Clear,0,2013-01-01 23:20:00
3:40 PM,17.6,5.0,58,30.33,10.0,Calm,Calm,-,N/A,,Clear,0,2013-01-01 23:40:00
4:00 PM,15.8,5.0,62,30.33,10.0,South,3.5,-,N/A,,Clear,180,2013-01-02 00:00:00
4:20 PM,14.0,3.2,62,30.33,10.0,Calm,Calm,-,N/A,,Clear,0,2013-01-02 00:20:00
4:40 PM,10.4,-0.4,62,30.32,10.0,Calm,Calm,-,N/A,,Clear,0,2013-01-02 00:40:00
5:00 PM,-9999,-9999,N/A,30.32,10.0,North,4.6,-,N/A,,Unknown,360,2013-01-02 01:00:00
5:20 PM,3.2,-2.2,78,30.34,10.0,Calm,Calm,-,N/A,,Clear,0,2013-01-02 01:20:00
5:40 PM,-0.4,-5.8,78,30.33,10.0,South,6.9,-,N/A,,Clear,190,2013-01-02 01:40:00
6:00 PM,-0.4,-7.6,72,30.34,10.0,South,3.5,-,N/A,,Clear,180,2013-01-02 02:00:00
6:20 PM,-4.0,-9.4,78,30.35,10.0,Calm,Calm,-,N/A,,Clear,0,2013-01-02 02:20:00
6:40 PM,-5.8,-11.2,77,30.36,10.0,SSW,4.6,-,N/A,,Clear,200,2013-01-02 02:40:00
7:00 PM,-7.6,-13.0,77,30.36,10.0,SSW,8.1,-,N/A,,Clear,200,2013-01-02 03:00:00
7:20 PM,-4.0,-7.6,85,30.36,10.0,SW,6.9,-,N/A,,Clear,220,2013-01-02 03:20:00
7:40 PM,-2.2,-7.6,78,30.35,10.0,SSW,6.9,-,N/A,,Clear,200,2013-01-02 03:40:00
8:00 PM,-4.0,-11.2,71,30.35,10.0,South,4.6,-,N/A,,Clear,190,2013-01-02 04:00:00
8:40 PM,-7.6,-13.0,77,30.36,10.0,Calm,Calm,-,N/A,,Clear,0,2013-01-02 04:40:00
9:00 PM,-7.6,-13.0,77,30.37,10.0,WSW,4.6,-,N/A,,Clear,240,2013-01-02 05:00:00
9:20 PM,-9.4,-14.8,77,30.37,10.0,South,4.6,-,N/A,,Clear,190,2013-01-02 05:20:00
9:40 PM,-4.0,-9.4,78,30.36,10.0,SW,5.8,-,N/A,,Clear,220,2013-01-02 05:40:00
10:00 PM,-4.0,-11.2,71,30.36,10.0,SW,3.5,-,N/A,,Clear,230,2013-01-02 06:00:00
10:20 PM,-9.4,-13.0,84,30.37,10.0,Calm,Calm,-,N/A,,Clear,0,2013-01-02 06:20:00
10:40 PM,-9.4,-16.6,71,30.37,10.0,Calm,Calm,-,N/A,,Clear,0,2013-01-02 06:40:00
11:00 PM,-9.4,-14.8,77,30.38,10.0,Calm,Calm,-,N/A,,Clear,0,2013-01-02 07:00:00
11:20 PM,-7.6,-11.2,84,30.38,10.0,SW,3.5,-,N/A,,Clear,230,2013-01-02 07:20:00
11:40 PM,-7.6,-11.2,84,30.38,10.0,SW,5.8,-,N/A,,Clear,230,2013-01-02 07:40:00